Tillbaka till svenska Fidonet
English   Information   Debug  
FILM   0/18
FNEWS_PUBLISH   4990
FN_SYSOP   42233
FN_SYSOP_OLD1   71952
FTP_FIDO   0/2
FTSC_PUBLIC   0/13977
FUNNY   0/4886
GENEALOGY.EUR   0/71
GET_INFO   105
GOLDED   0/408
HAM   0/16739
HOLYSMOKE   0/6791
HOT_SITES   0/1
HTMLEDIT   0/71
HUB203   466
HUB_100   264
HUB_400   39
HUMOR   0/29
IC   0/2851
INTERNET   0/424
INTERUSER   0/3
IP_CONNECT   719
JAMNNTPD   0/233
JAMTLAND   0/47
KATTY_KORNER   0/41
LAN   0/16
LINUX-USER   0/19
LINUXHELP   0/1155
LINUX   0/22398
LINUX_BBS   0/957
mail   18.68
mail_fore_ok   249
MENSA   0/341
MODERATOR   0/102
MONTE   0/992
MOSCOW_OKLAHOMA   0/1245
MUFFIN   0/783
MUSIC   0/321
N203_STAT   938
N203_SYSCHAT   313
NET203   321
NET204   69
NET_DEV   0/10
NORD.ADMIN   0/101
NORD.CHAT   0/2572
NORD.FIDONET   189
NORD.HARDWARE   0/28
NORD.KULTUR   0/114
NORD.PROG   0/32
NORD.SOFTWARE   0/88
NORD.TEKNIK   0/58
NORD   0/453
OCCULT_CHAT   0/93
OS2BBS   0/787
OS2DOSBBS   0/580
OS2HW   0/42
OS2INET   0/37
OS2LAN   0/134
OS2PROG   0/36
OS2REXX   0/113
OS2USER-L   207
OS2   0/4831
OSDEBATE   0/18996
PASCAL   0/490
PERL   0/457
PHP   0/45
POINTS   0/405
POLITICS   0/29554
POL_INC   0/14731
PSION   103
R20_ADMIN   1133
R20_AMATORRADIO   0/2
R20_BEST_OF_FIDONET   16
R20_CHAT   0/897
R20_DEPP   0/3
R20_DEV   400
R20_ECHO2   1898
R20_ECHOPRES   0/35
R20_ESTAT   0/719
R20_FIDONETPROG...
...RAM.MYPOINT
  0/2
R20_FIDONETPROGRAM   0/22
R20_FIDONET   0/248
R20_FILEFIND   0/24
R20_FILEFOUND   0/22
R20_HIFI   0/3
R20_INFO2   3791
R20_INTERNET   0/12940
R20_INTRESSE   0/60
R20_INTR_KOM   0/99
R20_KANDIDAT.CHAT   42
R20_KANDIDAT   28
R20_KOM_DEV   112
R20_KONTROLL   0/13360
R20_KORSET   0/18
R20_LOKALTRAFIK   0/24
R20_MODERATOR   0/1852
R20_NC   76
R20_NET200   245
R20_NETWORK.OTH...
...ERNETS
  0/13
R20_OPERATIVSYS...
...TEM.LINUX
  0/44
R20_PROGRAMVAROR   0/1
R20_REC2NEC   534
R20_SFOSM   0/341
R20_SF   0/108
R20_SPRAK.ENGLISH   0/1
R20_SQUISH   107
R20_TEST   2
R20_WORST_OF_FIDONET   20
RAR   0/9
RA_MULTI   106
RA_UTIL   0/162
REGCON.EUR   429/2071
REGCON   0/13
SCIENCE   0/1206
SF   0/239
SHAREWARE_SUPPORT   0/5146
SHAREWRE   0/14
SIMPSONS   0/169
STATS_OLD1   0/2539.065
STATS_OLD2   0/2530
STATS_OLD3   0/2395.095
STATS_OLD4   0/1692.25
SURVIVOR   0/495
SYSOPS_CORNER   0/3
SYSOP   0/84
TAGLINES   0/112
TEAMOS2   0/4530
TECH   0/2617
TEST.444   0/105
TRAPDOOR   0/19
TREK   0/755
TUB   0/290
UFO   0/40
UNIX   0/1316
USA_EURLINK   0/102
USR_MODEMS   0/1
VATICAN   0/2740
VIETNAM_VETS   0/14
VIRUS   0/378
VIRUS_INFO   0/201
VISUAL_BASIC   0/473
WHITEHOUSE   0/5187
WIN2000   0/101
WIN32   0/30
WIN95   0/4291
WIN95_OLD1   0/70272
WINDOWS   0/1517
WWB_SYSOP   0/419
WWB_TECH   0/810
ZCC-PUBLIC   0/1
ZEC   4

 
4DOS   0/134
ABORTION   0/7
ALASKA_CHAT   0/506
ALLFIX_FILE   0/1313
ALLFIX_FILE_OLD1   0/7997
ALT_DOS   0/152
AMATEUR_RADIO   0/1039
AMIGASALE   0/14
AMIGA   0/331
AMIGA_INT   0/1
AMIGA_PROG   0/20
AMIGA_SYSOP   0/26
ANIME   0/15
ARGUS   0/924
ASCII_ART   0/340
ASIAN_LINK   0/651
ASTRONOMY   0/417
AUDIO   0/92
AUTOMOBILE_RACING   0/105
BABYLON5   0/17862
BAG   135
BATPOWER   0/361
BBBS.ENGLISH   0/382
BBSLAW   0/109
BBS_ADS   0/5290
BBS_INTERNET   0/507
BIBLE   0/3563
BINKD   0/1119
BINKLEY   0/215
BLUEWAVE   0/2173
CABLE_MODEMS   0/25
CBM   0/46
CDRECORD   0/66
CDROM   0/20
CLASSIC_COMPUTER   0/378
COMICS   0/15
CONSPRCY   0/899
COOKING   42080
COOKING_OLD1   0/24719
COOKING_OLD2   0/40862
COOKING_OLD3   0/37489
COOKING_OLD4   0/35496
COOKING_OLD5   9370
C_ECHO   0/189
C_PLUSPLUS   0/31
DIRTY_DOZEN   0/201
DOORGAMES   0/2361
DOS_INTERNET   0/196
duplikat   6102
ECHOLIST   0/18295
EC_SUPPORT   0/318
ELECTRONICS   0/359
ELEKTRONIK.GER   1534
ENET.LINGUISTIC   0/13
ENET.POLITICS   0/4
ENET.SOFT   0/11701
ENET.SYSOP   34340
ENET.TALKS   0/32
ENGLISH_TUTOR   0/2000
EVOLUTION   0/1335
FDECHO   0/217
FDN_ANNOUNCE   0/7068
FIDONEWS   25131
FIDONEWS_OLD1   0/49742
FIDONEWS_OLD2   0/35949
FIDONEWS_OLD3   0/30874
FIDONEWS_OLD4   0/37224
FIDO_SYSOP   12975
FIDO_UTIL   0/180
FILEFIND   0/209
FILEGATE   0/212
Möte HAM, 16739 texter
 lista första sista föregående nästa
Text 5099, 921 rader
Skriven 2012-02-24 01:31:15 av Amsat List (1:323/120.0)
Ärende: [keps] orb12054.amsa
============================
[keps] orb12054.amsa

Sender: keps-bounces@amsat.org
Return-Path: <keps-bounces@amsat.org>
X-Rcpt: craig.healy@chowda.com
X-UIDL: 1330063784.1632

SB KEPS @ AMSAT  $ORB12054.O
Orbital Elements  12054.OSCAR

HR AMSAT ORBITAL ELEMENTS FOR OSCAR SATELLITES
FROM WA5QGD FORT WORTH,TX February 23, 2012
Send SUBSCRIBE KEPS/UNSUBSCRIBE KEPS to majordomo@amsat.org only
BID: ORB12054.O
TO ALL RADIO AMATEURS BT

Satellite: AO-07
Catalog number: 07530
Epoch time:      12053.50705951
Element set:    0314
Inclination:      101.4006 deg
RA of node:       055.2009 deg
Eccentricity:    0.0011901
Arg of perigee:   148.3379 deg
Mean anomaly:     211.8413 deg
Mean motion:   12.53587723 rev/day
Decay rate:       -2.7e-07 rev/day^2
Epoch rev:           70555
Checksum:              259

Satellite: FO-29
Catalog number: 24278
Epoch time:      12054.85786280
Element set:     779
Inclination:      098.5737 deg
RA of node:       170.5180 deg
Eccentricity:    0.0350257
Arg of perigee:   325.4654 deg
Mean anomaly:     032.4171 deg
Mean motion:   13.52977088 rev/day
Decay rate:        1.7e-07 rev/day^2
Epoch rev:           76649
Checksum:              344

Satellite: SO-33
Catalog number: 25509
Epoch time:      12054.81468340
Element set:     171
Inclination:      031.4344 deg
RA of node:       260.8870 deg
Eccentricity:    0.0353444
Arg of perigee:   282.5046 deg
Mean anomaly:     073.6416 deg
Mean motion:   14.28670735 rev/day
Decay rate:       2.22e-06 rev/day^2
Epoch rev:           69628
Checksum:              299

Satellite: RS-22
Catalog number: 27939
Epoch time:      12054.58220596
Element set:     111
Inclination:      097.8205 deg
RA of node:       261.2174 deg
Eccentricity:    0.0012287
Arg of perigee:   269.0191 deg
Mean anomaly:     090.9601 deg
Mean motion:   14.63906581 rev/day
Decay rate:       4.46e-06 rev/day^2
Epoch rev:           44911
Checksum:              299

Satellite: VO-52
Catalog number: 28650
Epoch time:      12054.67657163
Element set:      32
Inclination:      097.6106 deg
RA of node:       091.1789 deg
Eccentricity:    0.0027646
Arg of perigee:   058.3399 deg
Mean anomaly:     302.0482 deg
Mean motion:   14.82690509 rev/day
Decay rate:      1.204e-05 rev/day^2
Epoch rev:           36800
Checksum:              308

Satellite: HO-68
Catalog number: 36122
Epoch time:      12054.74822682
Element set:     225
Inclination:      100.3778 deg
RA of node:       116.3391 deg
Eccentricity:    0.0007624
Arg of perigee:   012.8426 deg
Mean anomaly:     347.2881 deg
Mean motion:   13.16293173 rev/day
Decay rate:       -4.4e-07 rev/day^2
Epoch rev:           10533
Checksum:              281

/EX
SB KEPS @ AMSAT  $ORB12054.D
Orbital Elements  12054.MICROS

HR AMSAT ORBITAL ELEMENTS FOR THE MICROSATS
FROM WA5QGD FORT WORTH,TX February 23, 2012
Send SUBSCRIBE KEPS/UNSUBSCRIBE KEPS to majordomo@amsat.org only
BID: ORB12054.D
TO ALL RADIO AMATEURS BT

Satellite: UO-11
Catalog number: 14781
Epoch time:      12054.82474479
Element set:     796
Inclination:      097.9697 deg
RA of node:       115.2762 deg
Eccentricity:    0.0009921
Arg of perigee:   048.4787 deg
Mean anomaly:     311.7277 deg
Mean motion:   14.80318734 rev/day
Decay rate:       5.19e-06 rev/day^2
Epoch rev:           50301
Checksum:              333

Satellite: AO-16
Catalog number: 20439
Epoch time:      12053.87079249
Element set:    0417
Inclination:      098.4175 deg
RA of node:       000.5483 deg
Eccentricity:    0.0011404
Arg of perigee:   136.9646 deg
Mean anomaly:     223.2431 deg
Mean motion:   14.32018879 rev/day
Decay rate:        9.1e-07 rev/day^2
Epoch rev:           15349
Checksum:              296

Satellite: LO-19
Catalog number: 20442
Epoch time:      12053.91138617
Element set:    0328
Inclination:      098.3827 deg
RA of node:       004.0036 deg
Eccentricity:    0.0012580
Arg of perigee:   130.1522 deg
Mean anomaly:     230.0768 deg
Mean motion:   14.32239094 rev/day
Decay rate:        1.7e-07 rev/day^2
Epoch rev:           15368
Checksum:              267

Satellite: AO-27
Catalog number: 22825
Epoch time:      12054.80081489
Element set:      39
Inclination:      098.5643 deg
RA of node:       359.4669 deg
Eccentricity:    0.0007647
Arg of perigee:   254.3123 deg
Mean anomaly:     105.7250 deg
Mean motion:   14.29431580 rev/day
Decay rate:       1.08e-06 rev/day^2
Epoch rev:           96013
Checksum:              306

Satellite: IO-26
Catalog number: 22826
Epoch time:      12053.91368013
Element set:    0789
Inclination:      098.5564 deg
RA of node:       358.9949 deg
Eccentricity:    0.0008081
Arg of perigee:   251.5382 deg
Mean anomaly:     108.4922 deg
Mean motion:   14.29702133 rev/day
Decay rate:        8.5e-07 rev/day^2
Epoch rev:           96013
Checksum:              322

Satellite: GO-32
Catalog number: 25397
Epoch time:      12054.59619161
Element set:     710
Inclination:      098.3512 deg
RA of node:       039.0147 deg
Eccentricity:    0.0000451
Arg of perigee:   218.9154 deg
Mean anomaly:     141.1978 deg
Mean motion:   14.23258138 rev/day
Decay rate:       -5.6e-07 rev/day^2
Epoch rev:           70772
Checksum:              295

Satellite: NO-44
Catalog number: 26931
Epoch time:      12052.92157605
Element set:    0976
Inclination:      067.0519 deg
RA of node:       059.9864 deg
Eccentricity:    0.0006382
Arg of perigee:   277.1004 deg
Mean anomaly:     082.9368 deg
Mean motion:   14.29761718 rev/day
Decay rate:       -5.5e-07 rev/day^2
Epoch rev:           54262
Checksum:              328

